Location: *
(50.2903°S, 172.5375°W)
Time: 23:25:32
(UTC+00:00)

Cosmos 1934 Rocket - Pass Details

Date: 17 November 2019
Orbit: 938 x 999 km, 83.0° (Epoch: 09 December)

Event Time Altitude Azimuth Distance (km) Brightness Sun altitude
Rises 14:24:20 0° 192° (SSW) 3,647 7.5 -9.2°
Reaches altitude 10° 14:26:50 10° 193° (SSW) 2,700 6.8 -8.9°
Maximum altitude 14:32:58 71° 275° (W) 1,019 4.0 -8.2°
Drops below altitude 10° 14:39:07 10° 357° (N) 2,703 5.9 -7.4°
Sets 14:41:38 0° 359° (N) 3,650 6.6 -7.1°
